Weather History for Florala, AL

Change the Weather History Date:

Monday, February 18, 2013

  Actual Average (KCEW) Record (KCEW)
Temperature  
Mean Temperature 49 °F -  
Max Temperature 63 °F 66 °F 81 °F (1982)
Min Temperature 35 °F 44 °F 25 °F (2007)
Degree Days  
Heating Degree Days 16    
Moisture  
Dew Point 34 °F    
Average Humidity 58    
Maximum Humidity 79    
Minimum Humidity 32    
Precipitation  
Precipitation 0.00 in - - ()
Sea Level Pressure  
Sea Level Pressure 30.26 in    
Wind  
Wind Speed 5 mph (SSE)    
Max Wind Speed 14 mph    
Max Gust Speed 22 mph    
Visibility 10 miles    
Events      
Averages and records for this station are not official NWS values.
T = Trace of Precipitation, MM = Missing Value Source: NWS Daily Summary

Daily Weather History Graph

Daily Weather History Graph

Search for Another Location

Airport:

Trip Planner

Search our weather history database for the weather conditions in past years. The results will help you decide how hot, cold, wet, or windy it might be!

Date:

Astronomy

Feb. 18, 2013 Rise Set
Actual Time 6:23 AM CST 5:35 PM CST
Civil Twilight 5:58 AM CST 6:00 PM CST
Nautical Twilight 5:30 AM CST 6:28 PM CST
Astronomical Twilight 5:02 AM CST 6:56 PM CST
Moon 11:31 AM CST (2/18) 12:52 AM CST (2/18)
Length of Visible Light 12h 01m
Length of Day
11h 12m
First Quarter, 58% of the Moon is Illuminated
Feb 18
First Quarter
Feb 25
Full
Mar 4
Last Quarter
Mar 11
New
Mar 19
First Quarter

Hourly Weather History & Observations

Time (CST) Temp. Windchill Dew Point Humidity Pressure Visibility Wind Dir Wind Speed Gust Speed Precip Events Conditions
12:58 AM 36.0 °F - 30.0 °F 79% 30.33 in 10.0 mi Calm Calm - N/A   Clear
1:58 AM 36.0 °F - 30.0 °F 79% 30.31 in 10.0 mi Calm Calm - N/A   Clear
2:58 AM 37.0 °F - 28.0 °F 70% 30.30 in 10.0 mi Calm Calm - N/A   Clear
3:58 AM 37.0 °F - 28.0 °F 70% 30.30 in 10.0 mi Calm Calm - N/A   Clear
4:58 AM 36.0 °F - 28.9 °F 76% 30.31 in 10.0 mi Calm Calm - N/A   Clear
5:58 AM 35.1 °F 32.2 °F 28.9 °F 78% 30.32 in 10.0 mi ESE 3.5 mph - N/A   Clear
6:58 AM 36.0 °F 33.3 °F 30.0 °F 79% 30.33 in 10.0 mi SE 3.5 mph - N/A   Clear
7:58 AM 43.0 °F 40.3 °F 33.1 °F 68% 30.35 in 10.0 mi SSE 4.6 mph - N/A   Clear
8:58 AM 52.0 °F - 35.1 °F 53% 30.35 in 10.0 mi SE 6.9 mph - N/A   Clear
9:58 AM 57.0 °F - 37.0 °F 47% 30.35 in 10.0 mi South 10.4 mph - N/A   Clear
10:58 AM 59.0 °F - 28.9 °F 32% 30.34 in 10.0 mi South 9.2 mph 17.3 mph N/A   Clear
11:58 AM 60.1 °F - 32.0 °F 35% 30.31 in 10.0 mi South 12.7 mph 17.3 mph N/A   Clear
12:58 PM 62.1 °F - 33.1 °F 34% 30.28 in 10.0 mi South 10.4 mph 18.4 mph N/A   Clear
1:58 PM 63.0 °F - 34.0 °F 34% 30.26 in 10.0 mi South 10.4 mph 21.9 mph N/A   Clear
2:58 PM 61.0 °F - 37.9 °F 42% 30.25 in 10.0 mi South 13.8 mph - N/A   Clear
3:58 PM 57.9 °F - 37.9 °F 47% 30.22 in 10.0 mi South 12.7 mph - N/A   Scattered Clouds
4:58 PM 55.9 °F - 37.0 °F 49% 30.21 in 10.0 mi South 11.5 mph - N/A   Partly Cloudy
5:58 PM 54.0 °F - 37.0 °F 53% 30.21 in 10.0 mi SSE 9.2 mph - N/A   Overcast
6:58 PM 52.0 °F - 39.0 °F 61% 30.20 in 10.0 mi South 9.2 mph - N/A   Clear
7:58 PM 51.1 °F - 37.9 °F 61% 30.20 in 10.0 mi SSE 8.1 mph - N/A   Clear
8:58 PM 51.1 °F - 37.9 °F 61% 30.18 in 10.0 mi SSE 9.2 mph 17.3 mph N/A   Mostly Cloudy
9:58 PM 50.0 °F - 37.0 °F 61% 30.17 in 10.0 mi SSE 9.2 mph - 0.00 in   Mostly Cloudy
10:58 PM 48.9 °F - 37.9 °F 66% 30.14 in 10.0 mi SE 6.9 mph - N/A   Clear
11:58 PM 48.9 °F - 39.0 °F 69% 30.10 in 10.0 mi SSE 8.1 mph - N/A   Clear